Wind_Speed
24 24 23 24 26 27 29 30 30 30 30 30 30 28 28 30 29 28 27 25 24 22 21 21 21 21 20 19 18 18 19 17 19 15 20 27 25 17 15 13 11 18 21 14 15 15 16 18 18 19 16 12 9 8 10 10 8 5 4 3 2 3 4 5 7 9 9 8 3 4 4 5 8 9 11 10 13 13 12 11 9 13 15 18 24 28 31 31
25 25 24 26 28 30 31 32 32 32 32 32 31 30 31 32 31 28 26 24 23 22 21 22 22 22 21 19 17 16 16 18 20 20 31 36 26 19 16 19 19 16 20 19 18 18 16 16 16 17 13 9 9 9 10 8 8 6 4 2 2 5 3 3 8 13 11 12 10 3 4 2 6 7 11 9 10 13 11 12 11 16 19 21 27 29 29 30
26 26 27 29 31 32 33 33 33 33 34 33 31 31 34 34 31 29 25 23 23 23 23 23 22 22 21 17 15 12 13 18 17 22 36 36 29 29 22 20 22 18 21 22 20 20 17 16 17 16 12 9 9 10 11 8 7 7 5 3 5 8 5 4 8 14 15 18 16 2 5 3 6 5 8 10 11 11 7 11 12 15 21 22 24 27 30 29
27 28 30 31 33 34 34 35 35 34 34 33 32 33 36 35 31 28 25 24 24 24 24 23 22 21 20 16 11 8 11 15 11 14 21 24 25 28 28 25 20 19 23 23 20 19 18 17 16 15 12 10 9 11 11 8 7 6 7 6 7 10 5 3 6 11 15 16 16 4 6 2 4 6 8 11 11 8 4 8 13 16 21 23 23 24 26 26
29 30 32 33 34 35 36 36 36 36 36 35 35 35 36 34 31 27 25 25 25 26 25 24 22 20 19 14 6 5 9 8 0 4 4 11 18 22 29 30 23 20 23 23 20 19 19 17 15 14 11 9 10 10 11 11 9 6 8 8 8 12 6 3 3 10 17 12 10 7 11 5 6 6 9 11 9 8 6 7 14 17 20 23 23 22 22 23
31 32 33 35 36 37 37 38 38 37 37 36 36 36 36 34 29 26 26 27 27 26 25 23 21 18 16 9 3 5 8 3 6 9 7 1 8 18 28 30 26 22 23 22 21 19 18 17 15 13 11 10 13 12 11 13 11 8 8 10 9 13 9 9 9 9 18 13 6 2 7 12 5 5 6 10 10 12 12 10 17 19 19 22 22 21 21 23
33 34 35 37 38 39 39 39 39 39 39 38 38 36 34 32 28 27 28 28 27 26 24 20 17 14 10 4 3 7 9 11 10 2 3 5 7 12 23 27 26 23 23 22 20 19 17 17 16 13 12 11 13 14 13 12 13 11 9 11 10 11 11 13 13 13 17 14 5 4 10 10 2 4 3 13 15 16 17 15 19 19 20 22 20 21 21 22
35 36 37 38 39 40 41 41 41 40 40 39 39 36 33 31 28 28 29 28 27 23 20 16 13 10 4 3 6 8 10 20 25 14 7 6 3 8 16 23 24 24 24 23 21 19 17 18 17 13 12 13 12 13 14 12 13 13 12 12 9 8 10 11 12 13 12 10 6 6 8 4 4 4 5 15 19 16 17 18 20 20 20 20 20 21 20 20
36 37 38 39 40 41 42 42 42 41 41 40 38 35 32 30 28 29 29 27 23 19 16 13 11 6 5 6 7 9 13 21 25 18 14 11 9 10 16 18 22 25 24 24 24 21 16 15 17 16 13 13 14 14 15 13 10 12 13 13 11 10 10 9 11 11 8 6 6 9 8 4 4 6 5 13 18 15 16 18 20 20 20 20 19 20 20 20
37 38 38 40 40 42 42 43 43 42 42 40 36 33 32 30 29 29 28 24 19 16 14 11 9 4 8 8 8 9 11 15 15 18 17 13 15 16 17 17 22 25 22 23 24 21 17 15 16 15 13 13 13 14 15 14 9 11 12 12 14 14 11 9 11 10 6 6 9 10 7 5 5 7 5 10 17 16 17 19 20 19 19 19 18 19 18 19
38 38 39 40 41 42 43 43 43 42 42 39 35 32 31 30 29 28 26 20 15 15 13 10 7 8 11 10 10 10 7 7 6 17 18 16 19 20 19 17 21 26 22 21 22 22 20 18 15 11 10 11 13 14 15 15 12 12 11 10 13 15 14 12 12 10 7 9 12 11 9 7 8 7 6 11 16 17 19 19 20 18 17 18 18 18 15 15
38 38 39 40 41 42 42 43 43 42 41 37 33 32 31 29 28 28 22 16 13 14 13 9 7 10 12 10 13 18 13 8 3 11 14 17 19 19 19 17 21 25 23 19 20 23 22 20 17 13 11 10 12 12 12 15 15 14 12 10 12 13 14 15 14 11 10 9 10 9 9 10 10 8 8 13 14 16 20 18 18 18 16 17 17 16 14 14
38 39 40 41 42 43 43 43 43 42 40 35 32 32 30 27 28 26 19 14 13 14 13 7 8 11 11 9 15 26 25 18 11 9 10 14 18 18 18 18 20 23 23 21 19 22 22 20 19 16 13 11 11 10 10 11 13 14 12 10 10 10 11 14 14 14 13 9 10 10 7 8 11 11 10 14 15 16 20 18 16 16 16 15 15 14 15 16
38 39 40 41 41 43 43 43 43 42 38 33 32 31 28 27 28 24 17 13 11 12 10 5 9 10 10 10 16 24 24 22 21 17 13 13 18 19 20 20 20 21 22 22 20 20 21 21 19 15 13 13 12 12 13 10 8 11 12 9 9 8 8 11 13 15 14 11 13 13 7 7 9 12 12 13 16 17 16 17 16 15 15 15 14 14 15 16
39 40 40 41 41 42 43 43 43 39 34 32 31 30 28 27 26 20 14 10 8 10 5 5 10 9 7 13 19 20 19 20 23 23 19 15 17 18 21 21 21 22 21 21 20 18 19 20 17 13 12 14 14 14 13 10 8 9 10 10 10 9 8 12 15 16 15 11 14 14 8 5 5 8 15 14 15 17 15 15 15 15 16 16 15 14 15 15
39 40 40 42 42 43 43 42 41 36 32 32 30 29 29 27 23 17 12 9 8 5 1 6 13 12 7 8 10 10 15 20 21 23 23 20 18 17 20 22 20 21 21 20 20 17 18 17 13 12 12 13 14 12 10 10 9 9 10 10 10 10 9 11 13 16 16 12 14 15 10 5 3 3 13 15 15 15 14 15 15 14 14 14 14 14 14 15
39 39 40 41 41 43 43 42 39 33 31 32 30 31 29 21 17 15 10 9 8 5 7 8 10 11 9 10 8 7 15 20 20 21 23 23 21 19 19 18 17 19 19 19 19 17 15 13 10 11 12 11 11 11 10 11 10 9 10 9 11 12 10 10 10 13 17 15 15 16 12 7 5 4 8 13 15 14 13 14 14 12 12 12 13 13 14 15
39 39 39 40 41 42 42 42 37 30 31 31 29 32 26 14 12 13 8 7 6 7 11 12 9 7 8 10 13 12 11 18 22 20 22 24 22 22 19 16 15 17 16 15 16 16 12 11 10 10 11 12 12 12 12 12 11 10 10 9 10 12 13 14 10 10 15 17 15 15 14 9 8 9 9 11 14 14 14 15 13 12 12 12 13 13 13 15
40 39 39 39 39 40 41 41 34 28 31 30 28 29 17 7 7 7 7 6 5 6 7 6 9 7 8 9 15 16 11 11 20 20 21 24 22 21 19 16 15 16 15 11 14 16 12 9 11 12 12 14 15 16 15 15 14 14 13 12 11 11 13 14 11 10 13 15 14 14 14 11 12 13 13 13 13 14 15 16 13 11 10 11 12 12 13 15
41 40 41 40 40 39 40 39 32 26 29 32 33 26 10 7 7 2 3 8 9 13 16 12 13 15 18 18 13 12 9 8 15 18 22 24 21 19 17 15 15 14 15 13 14 15 12 10 13 14 15 17 19 20 19 18 18 17 15 14 14 13 12 13 11 11 12 12 13 15 15 14 15 16 15 15 15 14 15 17 17 15 13 12 13 12 13 15
41 41 41 42 42 40 39 38 29 23 25 30 30 16 8 13 11 8 11 14 16 16 22 23 20 21 23 23 21 13 7 7 13 16 21 24 20 17 15 15 16 13 15 17 14 12 12 13 16 19 20 20 20 21 20 20 20 19 16 13 14 13 12 14 12 11 13 11 11 15 15 15 16 16 17 16 15 13 14 15 19 21 18 15 15 15 14 13
40 40 40 41 41 40 39 36 26 22 22 23 19 9 10 14 11 13 15 15 18 18 21 25 24 24 25 27 31 25 15 11 15 16 20 24 20 16 15 17 17 14 16 17 12 11 13 16 20 21 20 20 20 20 21 22 20 17 15 13 11 11 12 14 14 13 12 8 9 14 15 14 14 15 16 17 15 12 13 14 17 21 19 16 16 15 14 14
40 41 41 40 41 40 37 33 24 19 19 17 13 12 14 17 16 18 14 11 19 20 18 22 23 23 23 24 28 25 17 15 15 16 21 22 19 17 16 17 18 16 17 18 15 13 13 15 20 20 19 21 21 20 22 20 17 14 14 12 11 13 12 10 13 17 15 10 9 12 13 12 14 14 14 16 15 14 16 17 15 19 20 19 19 16 15 16
40 41 41 40 42 39 36 31 20 16 19 17 13 16 19 20 18 19 14 10 15 16 18 24 22 19 23 21 21 21 17 15 15 16 23 22 18 17 17 17 19 17 17 21 23 18 16 14 16 20 21 22 22 21 21 16 13 15 16 15 13 14 14 11 10 15 15 14 13 12 10 9 12 14 14 14 14 14 16 16 14 15 19 20 20 19 17 18
41 41 41 40 40 39 36 24 14 18 23 16 14 19 21 20 18 18 13 8 10 13 17 20 15 16 24 22 19 18 15 16 16 15 20 24 20 16 14 14 14 16 20 24 23 19 18 16 16 21 22 23 22 19 20 16 11 14 18 19 18 16 16 16 13 12 11 11 14 13 9 7 11 15 14 13 13 15 15 15 15 12 15 20 18 17 17 18
42 41 41 39 37 40 31 13 13 23 20 12 17 21 22 19 19 18 11 7 9 10 11 13 9 13 20 18 15 15 15 16 16 16 19 24 23 15 13 11 10 16 20 20 16 11 14 18 18 20 21 23 22 17 20 19 12 11 15 20 22 20 17 17 17 12 8 8 13 14 10 7 9 13 14 14 14 16 15 15 17 12 12 17 16 16 17 17
42 40 40 37 35 35 22 10 19 22 12 13 20 23 22 20 20 17 8 5 7 2 7 8 6 8 14 16 17 16 11 9 14 20 20 24 24 17 15 15 11 14 15 12 11 10 14 21 20 20 21 20 18 16 18 20 14 10 13 18 21 21 19 18 17 14 9 9 13 16 13 8 8 12 15 17 17 16 17 15 17 15 15 19 17 17 18 17
42 40 38 36 32 25 14 15 19 16 11 18 22 22 22 21 20 14 5 5 4 3 6 3 3 4 7 13 21 18 9 8 14 19 21 26 26 17 17 20 16 17 17 14 12 13 16 22 22 21 19 15 15 16 18 20 16 12 14 16 17 20 20 18 15 12 10 10 10 15 16 10 8 10 12 18 20 18 18 17 17 18 19 20 18 19 20 19
43 40 36 34 29 19 11 14 15 13 17 22 22 22 24 22 16 7 4 6 6 3 2 1 2 4 5 10 20 19 13 9 10 14 20 25 27 19 15 19 19 18 21 19 15 13 15 19 21 20 16 13 15 18 19 20 16 13 16 15 13 16 19 17 14 11 10 11 10 13 16 11 8 10 11 14 16 17 17 16 15 17 18 18 18 19 20 18
43 40 34 31 25 17 14 13 12 15 21 22 22 25 24 17 8 5 6 6 5 6 2 2 3 2 6 10 15 17 17 14 8 13 19 19 24 22 14 15 19 16 17 21 18 16 15 16 18 17 15 13 15 17 19 20 17 15 15 13 12 12 12 12 12 10 10 10 12 16 17 11 8 8 10 12 14 16 15 14 15 18 19 18 18 19 20 17
43 38 29 25 20 16 15 12 13 20 20 21 24 23 17 9 4 7 7 4 6 9 8 6 11 10 5 9 12 15 18 17 13 13 17 16 20 20 14 13 15 13 13 16 17 19 19 16 15 14 17 16 15 15 17 19 19 15 12 11 10 8 7 8 9 10 11 10 12 17 18 14 10 8 9 11 15 17 15 15 19 20 20 17 16 17 19 17
42 35 23 17 15 14 12 11 18 21 19 21 21 15 9 6 6 8 7 7 6 8 12 14 19 19 16 14 10 15 16 14 16 15 15 16 16 16 17 14 11 12 14 13 14 16 17 17 15 15 18 19 16 13 13 16 17 13 11 11 10 8 8 9 8 9 10 9 10 16 18 15 12 10 12 12 12 16 16 15 17 19 20 17 15 17 17 16
41 30 18 12 12 13 12 12 18 19 19 20 15 7 6 7 7 8 10 10 6 12 15 16 21 22 19 16 11 13 15 15 17 17 15 18 16 17 21 21 18 16 12 12 14 13 13 16 20 18 16 18 18 13 11 13 14 14 12 11 10 9 9 10 8 8 9 9 11 16 16 14 12 10 15 17 13 13 15 16 16 16 19 18 16 17 17 18
37 24 16 16 14 15 13 14 17 17 18 16 9 7 7 8 8 10 11 9 12 17 18 18 22 23 18 13 10 10 11 13 16 18 16 17 16 14 18 23 25 19 11 11 12 12 13 14 19 20 13 17 21 16 13 13 13 14 13 11 11 10 8 8 8 8 8 8 12 15 13 11 10 8 13 18 16 15 13 14 16 16 17 17 17 18 18 20
33 20 19 19 14 12 12 16 15 15 15 10 6 7 7 6 6 6 8 12 15 16 20 22 19 18 16 12 11 12 11 9 15 17 14 14 15 14 15 18 24 21 13 12 10 12 16 12 16 21 16 18 22 18 16 15 12 12 12 12 12 10 8 7 8 10 10 8 10 12 10 8 8 8 11 15 17 19 17 14 15 15 20 19 17 19 18 17
29 20 19 15 7 7 13 16 14 13 11 6 5 5 6 7 8 9 11 14 15 16 21 19 12 11 12 10 9 10 9 9 13 14 11 14 16 17 16 15 21 24 17 12 8 9 14 12 15 21 21 20 21 20 19 16 10 10 12 13 12 11 11 7 8 11 11 10 8 8 9 9 8 10 12 12 12 15 18 18 17 14 21 22 18 19 19 17
27 20 18 14 10 11 15 14 12 11 8 3 4 5 7 10 12 12 12 14 16 17 16 12 9 10 11 9 9 9 15 15 11 11 12 14 13 17 19 15 20 26 23 17 11 9 11 10 15 22 23 21 19 20 22 19 12 9 11 13 11 12 12 7 6 7 9 9 7 9 13 11 9 8 10 14 14 12 14 18 19 16 17 21 20 21 21 19
26 20 15 14 12 13 14 13 12 10 6 4 5 5 6 9 12 13 13 14 15 14 13 10 9 12 13 12 13 17 20 15 12 12 10 13 10 15 19 16 18 25 28 23 13 10 11 9 12 21 23 20 18 18 18 19 19 14 11 13 11 10 10 8 7 7 8 8 6 10 13 11 10 9 10 15 16 15 15 15 18 19 17 16 18 22 23 19
23 15 6 4 10 13 13 13 12 8 5 5 5 4 5 7 9 11 13 14 13 11 11 11 11 12 14 14 15 17 17 14 14 15 8 9 7 6 3 5 9 16 26 28 17 11 11 9 9 18 23 19 15 14 14 15 19 17 12 13 11 9 8 9 8 7 7 7 6 8 9 7 8 8 11 14 14 15 15 13 14 18 17 13 14 20 21 17
16 9 2 10 14 15 16 15 11 5 5 5 5 5 7 7 8 10 11 12 10 8 9 12 13 13 13 15 15 14 15 16 16 12 10 9 5 8 13 13 9 9 10 18 19 15 11 10 9 13 21 20 13 13 16 15 16 15 13 12 11 9 8 9 9 8 7 6 5 6 7 7 8 8 12 14 13 15 14 11 11 14 17 15 13 17 19 16
13 7 4 13 16 16 18 13 6 2 5 5 5 7 8 7 9 10 9 10 9 7 9 12 13 13 12 13 13 12 12 13 14 12 10 12 12 9 12 16 14 13 11 9 14 16 10 9 11 10 13 17 15 17 20 20 19 15 12 12 12 11 10 9 9 10 8 7 5 5 5 4 3 5 10 11 11 13 13 12 10 12 17 16 14 17 19 17
10 6 10 12 13 16 15 8 2 3 5 5 6 8 8 7 9 10 9 9 9 7 9 10 12 13 12 10 10 12 12 12 13 13 11 13 16 13 14 19 19 13 10 8 8 14 11 8 10 11 11 15 20 20 21 22 22 19 15 13 12 12 11 9 8 8 9 9 7 7 5 1 4 2 5 8 10 12 12 11 10 12 14 15 17 18 19 19
6 10 16 11 10 14 11 5 5 5 5 8 9 10 10 8 9 9 9 10 9 8 8 8 11 12 11 10 10 11 12 12 10 11 13 15 15 17 20 20 18 15 10 6 5 8 10 8 9 10 10 12 19 20 20 21 20 17 16 15 13 13 13 11 8 7 8 10 9 7 6 3 4 3 3 6 6 11 12 11 12 12 11 11 16 15 15 18
7 11 13 8 13 12 8 5 7 6 7 10 10 10 9 7 8 9 10 10 9 9 9 9 10 11 11 11 11 10 11 10 8 10 14 14 16 22 25 23 19 14 8 7 7 4 4 7 10 9 7 9 16 16 15 18 17 13 13 17 18 17 18 14 10 7 7 10 11 8 6 4 6 4 4 6 3 8 11 11 12 12 9 9 12 12 14 18
9 9 8 9 13 9 5 5 7 7 9 11 11 11 9 7 7 9 11 11 10 10 10 10 12 13 12 12 11 10 9 9 9 11 12 12 16 20 23 27 25 16 9 12 12 8 5 6 8 8 9 12 14 13 12 14 13 12 15 21 23 22 21 15 9 8 7 8 11 9 6 5 9 8 6 7 7 8 10 11 10 9 5 1 6 9 11 14
8 7 7 8 9 6 4 5 7 7 9 10 10 10 10 9 8 8 10 9 8 10 11 12 13 13 12 12 12 10 10 10 9 8 10 11 12 15 22 29 27 19 18 17 14 8 6 7 9 10 12 9 4 6 10 14 15 16 19 23 25 24 22 15 9 8 8 7 9 8 5 8 12 10 7 8 9 7 11 13 9 11 13 10 10 11 10 10
6 7 8 8 7 7 5 6 8 7 8 9 8 9 11 10 8 8 8 6 8 10 9 10 11 12 12 13 12 10 10 11 9 9 11 12 12 16 24 27 23 23 28 19 12 6 5 8 11 15 16 11 4 3 1 8 15 21 23 22 24 26 24 18 13 11 9 7 8 8 8 10 12 11 10 10 7 5 10 14 11 13 13 10 9 11 12 11
5 6 9 10 8 8 8 9 11 11 11 10 8 9 11 10 8 9 8 7 8 7 5 7 10 12 15 15 11 9 10 10 8 8 9 10 13 16 20 22 21 23 28 17 9 4 5 8 11 16 17 15 13 7 6 8 7 14 23 24 24 26 27 22 16 15 12 7 7 9 9 9 10 10 11 12 9 7 8 10 12 14 11 9 9 11 14 13
6 6 8 11 9 9 12 14 14 14 13 10 8 8 10 10 10 9 8 8 9 5 3 8 12 12 15 15 10 8 8 8 6 6 7 10 13 12 12 16 18 21 25 16 7 6 3 6 11 15 17 16 15 14 10 7 11 10 18 24 22 24 27 23 18 18 15 9 9 10 8 5 9 11 10 10 10 9 9 8 10 12 10 7 7 11 14 14
5 4 5 8 8 9 12 13 12 12 10 9 9 7 8 11 11 10 8 8 9 9 7 10 13 14 16 16 12 8 8 7 7 7 8 9 10 8 7 9 12 19 22 15 9 10 6 5 8 10 12 14 15 15 12 9 11 14 14 22 24 22 25 24 20 18 16 12 12 12 9 6 8 10 11 9 8 8 9 9 8 9 8 8 8 8 12 16
8 9 7 6 6 7 9 10 10 10 8 6 7 8 8 10 11 12 10 6 5 9 11 12 13 13 14 16 14 10 9 8 10 10 10 10 9 7 7 9 13 17 18 14 12 11 8 6 7 7 7 10 13 16 15 11 12 15 15 18 25 21 20 21 18 17 14 13 14 13 11 8 7 11 13 10 7 7 7 7 6 6 7 6 5 4 5 8
9 11 9 5 5 6 7 9 9 9 8 6 8 10 11 12 11 10 8 4 3 8 10 12 14 11 11 15 14 12 11 10 11 11 9 10 11 9 9 13 17 16 13 13 12 9 9 8 5 6 7 8 12 15 14 11 11 10 10 12 18 16 16 18 18 18 17 15 13 10 8 7 7 10 14 12 9 7 5 4 4 6 6 3 3 4 4 2
Wind_Direction
1 359 357 356 358 358 357 356 355 353 352 349 347 345 344 343 339 335 332 328 325 322 320 319 317 315 312 311 311 308 314 308 294 271 239 251 250 244 255 249 255 229 206 192 204 203 197 207 209 207 212 215 218 232 230 225 222 222 229 235 286 270 278 307 321 306 302 333 324 145 123 128 128 126 120 124 123 129 140 125 130 135 129 134 136 143 148 147
358 357 356 357 358 357 356 355 354 352 350 348 346 345 344 342 337 333 329 327 326 322 319 316 314 313 310 313 311 312 320 298 281 267 252 255 250 245 250 234 245 235 197 198 208 203 201 204 205 207 210 219 215 218 229 222 215 220 227 205 217 243 259 291 297 298 312 322 303 142 138 139 127 135 120 124 124 123 126 107 100 113 122 130 135 146 149 150
356 357 358 358 357 357 356 355 353 351 349 346 344 343 343 341 336 333 328 326 327 323 318 313 312 310 309 311 311 319 315 296 279 262 259 260 250 239 239 229 235 231 198 201 210 203 208 208 202 207 210 221 220 215 222 217 217 214 216 219 202 226 263 296 302 311 312 304 294 196 148 145 136 148 128 128 101 93 112 115 118 121 129 137 141 150 150 154
356 357 359 358 358 357 356 354 352 350 349 346 343 341 341 339 336 332 328 326 325 322 316 312 312 307 307 308 308 321 303 289 272 260 263 256 245 231 225 224 221 217 205 206 217 210 210 213 204 208 212 222 225 221 223 215 216 203 212 228 184 195 229 297 317 302 282 275 280 304 62 6 167 140 133 136 108 98 143 132 135 137 138 142 146 152 152 156
357 357 358 357 357 357 355 353 351 350 349 346 343 341 339 338 336 332 328 326 323 319 315 310 309 304 305 303 299 313 289 281 356 29 332 233 230 223 216 216 209 201 203 210 222 217 212 216 208 209 214 225 228 223 227 218 218 218 231 240 175 173 190 220 254 278 270 253 267 359 57 299 256 128 131 142 134 130 158 157 139 140 144 146 149 154 155 157
358 357 357 357 357 355 353 352 351 350 348 345 343 341 338 337 334 331 328 324 322 318 314 309 305 302 301 296 274 271 261 268 59 59 43 106 196 211 211 210 206 198 201 211 222 219 212 215 210 210 213 224 232 227 225 215 219 231 237 243 195 177 183 183 185 239 262 243 213 100 147 224 237 121 123 120 125 127 144 157 138 141 147 147 150 155 160 160
358 358 357 356 356 354 352 350 350 349 347 345 342 340 337 335 332 330 327 324 322 317 313 308 302 302 299 286 237 246 244 258 276 301 44 31 95 185 206 205 202 198 204 213 219 218 210 212 211 210 213 220 232 232 232 221 220 230 239 250 222 196 197 191 190 206 243 249 211 192 201 216 131 115 128 112 124 135 147 150 139 144 146 148 153 158 165 163
357 357 356 355 354 352 351 349 348 348 346 344 341 339 337 334 330 327 326 325 322 315 313 307 299 300 277 241 239 240 234 245 254 248 244 262 120 149 188 197 198 198 208 213 216 218 208 211 211 210 217 219 229 231 234 231 224 230 236 253 249 228 223 210 215 215 231 259 263 248 234 224 128 163 183 135 134 139 143 144 141 145 148 153 159 162 167 167
357 356 355 354 353 351 349 348 347 346 345 343 340 338 335 332 328 325 325 325 320 314 315 304 296 288 210 223 246 251 245 248 248 231 224 223 188 163 169 185 196 198 208 212 216 219 210 212 212 212 222 223 232 234 234 231 225 231 231 242 249 243 232 215 229 235 235 250 261 260 251 243 175 165 177 143 136 137 141 145 144 147 155 158 163 166 167 169
356 355 354 353 352 350 348 346 345 344 343 342 339 336 333 330 327 324 324 324 318 312 313 300 290 234 200 219 235 250 256 263 245 201 199 195 174 170 173 184 192 196 207 212 216 219 213 216 214 216 229 232 237 240 239 234 227 231 233 241 248 253 248 231 229 223 225 241 247 257 250 249 220 182 175 147 141 143 143 145 146 152 159 159 165 167 166 169
355 355 353 351 350 349 347 345 344 343 342 340 337 334 331 329 326 325 324 322 316 310 312 298 270 205 208 224 231 240 244 270 219 176 186 184 171 175 187 192 187 194 207 212 217 218 216 220 218 218 226 236 244 245 246 245 248 239 234 245 249 253 252 247 242 216 201 224 233 249 254 248 230 201 175 151 148 146 142 147 155 159 161 161 166 164 167 171
355 354 352 350 349 348 346 344 343 341 340 338 335 333 330 329 327 325 322 319 315 308 309 294 242 203 217 236 234 234 240 268 216 178 197 190 182 188 196 198 190 196 207 213 219 217 218 222 222 225 222 229 243 247 246 240 249 247 232 241 245 248 246 240 243 227 213 219 218 234 247 238 224 209 170 150 154 153 147 154 162 159 159 164 166 162 170 174
354 353 351 349 348 347 346 344 342 340 339 337 334 332 330 329 327 323 319 314 314 308 304 282 215 206 227 246 238 238 247 264 257 226 224 206 202 203 201 204 199 201 209 217 222 216 219 223 226 233 231 233 237 246 257 240 244 248 233 237 245 246 244 234 234 229 221 222 218 220 234 234 219 207 175 156 163 159 151 156 163 162 161 167 167 164 172 173
353 352 351 349 347 346 345 343 342 340 338 335 332 331 329 329 324 317 314 310 313 311 299 236 193 202 229 252 256 250 247 258 259 242 227 218 214 205 201 208 209 207 211 220 226 220 218 222 230 237 235 240 245 250 258 252 245 248 234 232 242 245 246 236 229 225 218 209 214 223 235 231 213 196 173 158 163 161 155 155 159 165 163 167 170 168 174 175
353 351 350 348 346 345 344 343 341 340 337 334 331 328 327 328 319 310 313 310 312 314 299 190 198 212 249 258 264 262 242 244 250 232 220 220 214 204 200 206 211 210 211 220 226 225 219 219 226 234 233 236 246 251 250 243 230 233 233 225 228 235 247 242 228 218 215 203 206 222 236 230 247 203 169 160 166 165 163 157 159 171 166 165 169 170 176 175
352 351 350 348 345 345 344 343 341 340 337 333 330 328 328 326 311 301 310 301 294 302 192 177 203 215 267 275 262 249 220 224 230 221 219 218 214 209 200 201 209 209 210 218 224 227 221 217 221 228 235 231 233 242 247 246 228 219 229 228 223 224 237 243 226 209 208 205 205 217 231 220 273 214 162 163 172 171 170 162 163 170 164 166 168 172 176 173
352 351 349 347 345 344 342 342 342 339 336 332 330 330 331 327 298 286 303 295 281 257 219 236 227 217 250 279 280 238 207 213 216 213 213 212 215 214 200 198 205 205 208 213 220 227 220 214 217 220 230 232 224 226 231 236 227 214 218 226 228 225 231 238 227 205 198 203 208 212 226 213 179 177 170 171 174 180 178 160 159 160 161 178 172 170 177 172
351 350 349 347 344 341 341 342 340 337 335 332 331 332 333 330 295 278 281 266 250 231 230 251 253 234 242 248 250 243 218 206 207 212 207 203 211 214 204 199 200 200 204 210 213 220 217 209 215 216 220 225 221 217 219 222 224 219 211 219 226 224 231 231 224 205 193 202 208 209 218 198 169 195 206 193 183 186 177 157 163 163 162 182 172 169 180 176
350 350 349 347 343 340 339 340 339 335 333 331 334 336 334 330 299 254 239 244 233 240 252 235 211 233 303 279 242 242 256 214 197 206 203 195 204 211 205 198 199 200 201 205 203 207 211 203 210 219 215 215 217 218 221 222 228 232 220 220 224 222 232 232 220 200 194 206 209 213 219 187 173 199 207 206 198 192 179 160 163 172 169 176 172 174 181 180
350 349 348 347 343 340 338 339 337 333 331 327 327 330 336 357 338 255 273 287 275 274 284 280 240 251 285 295 273 239 248 221 193 201 199 191 196 204 202 196 198 201 204 205 197 198 209 210 211 217 215 214 216 221 228 228 232 240 235 225 223 223 231 232 220 197 194 210 209 212 223 200 185 193 198 204 201 199 192 166 156 173 179 171 176 182 180 182
350 348 348 346 343 340 338 339 335 329 331 324 318 324 8 8 347 330 323 298 280 269 270 272 264 261 264 272 280 268 259 232 201 202 196 188 192 198 193 192 197 200 204 206 198 194 210 221 218 215 215 217 218 220 227 230 231 239 246 241 230 224 227 227 218 197 196 213 213 209 222 220 202 191 190 196 198 205 210 181 157 168 179 175 180 182 178 182
350 349 347 344 343 339 336 339 333 325 329 320 317 349 14 355 335 318 314 296 284 269 260 263 261 262 259 258 266 270 280 252 210 201 193 185 192 197 184 188 200 200 197 203 202 194 210 227 222 213 213 219 221 219 220 228 231 232 243 251 245 233 225 220 211 197 199 216 218 209 218 230 221 206 197 196 197 202 220 210 168 162 175 179 179 175 174 179
349 349 346 343 343 338 335 337 330 324 324 315 331 8 356 339 332 319 307 290 287 275 256 250 244 246 248 249 254 254 256 243 217 201 190 186 196 199 188 189 200 202 194 201 206 198 209 224 220 214 214 216 222 222 217 222 230 229 234 239 246 244 236 223 200 189 195 214 221 212 214 226 228 223 215 212 208 201 212 218 188 167 173 176 174 172 174 180
348 348 345 343 341 338 337 334 328 334 326 315 344 4 347 335 332 327 314 281 281 275 249 240 234 231 232 230 233 234 234 233 227 205 187 190 198 197 198 195 197 205 199 202 209 212 219 217 210 213 216 216 219 222 219 217 223 227 230 231 236 242 245 251 215 185 191 209 217 217 218 222 224 225 222 219 217 214 214 213 208 185 168 167 170 171 177 180
347 347 345 343 339 337 335 330 337 342 324 323 359 354 340 335 333 330 318 284 277 269 241 231 228 228 225 219 215 218 223 226 228 214 190 193 199 193 199 200 199 209 203 203 211 219 225 217 204 209 214 217 218 220 220 217 219 224 227 232 236 237 238 249 239 200 190 207 211 215 226 224 220 226 225 217 212 216 217 205 206 199 160 161 168 171 178 180
346 345 345 342 337 337 338 338 345 331 315 338 2 343 334 335 333 326 312 282 280 267 221 198 189 203 207 205 199 198 218 226 223 223 201 193 201 199 200 201 201 212 206 203 213 224 226 221 213 209 210 215 219 221 218 217 223 224 221 225 234 241 239 241 242 225 200 202 203 207 227 232 217 225 226 224 220 214 217 206 199 196 157 157 167 172 178 180
346 344 344 341 336 339 339 324 328 324 319 350 346 335 332 332 327 320 305 273 275 234 151 160 155 169 186 189 180 181 209 209 203 224 213 189 195 206 209 204 199 210 207 202 214 218 216 220 218 211 208 211 217 220 215 214 223 227 220 218 223 235 241 242 245 242 223 207 201 201 216 236 228 223 220 222 226 219 218 213 196 186 165 164 173 173 176 182
345 343 343 340 336 338 320 289 308 322 336 341 334 330 328 324 318 308 288 284 298 91 111 115 108 165 201 186 179 189 211 173 180 215 214 192 191 202 214 212 206 206 205 208 216 210 208 217 219 213 210 211 214 216 212 213 223 226 226 225 219 223 234 242 250 253 248 238 221 201 201 222 235 223 216 215 220 221 219 215 200 186 172 170 179 177 176 182
343 342 343 339 335 343 324 274 276 307 330 333 329 326 320 313 307 289 251 271 297 23 104 161 118 190 207 179 185 202 217 204 187 194 203 199 193 201 218 217 216 212 209 219 225 215 209 213 219 220 216 213 214 214 210 212 220 220 224 235 230 220 221 229 240 249 252 252 251 223 205 215 230 214 212 213 214 218 217 215 205 189 176 174 179 180 177 178
341 340 343 339 333 342 332 287 275 318 332 330 324 321 313 304 288 248 240 245 282 347 11 137 71 150 193 185 193 208 216 229 228 181 192 200 192 201 219 216 223 224 214 222 228 230 225 209 212 224 224 214 212 214 211 213 218 212 216 231 236 229 220 219 227 235 243 242 244 244 235 236 243 220 212 210 207 215 215 212 206 191 181 184 184 179 173 173
339 338 341 336 327 326 319 309 325 334 331 324 320 316 305 290 258 240 245 268 302 338 2 12 7 356 281 223 202 206 213 230 241 198 189 195 190 198 211 209 220 227 219 220 222 228 232 219 205 214 226 219 208 213 213 210 214 211 207 217 224 227 225 222 216 215 232 234 225 236 245 248 247 235 228 212 198 207 214 211 208 193 182 193 193 175 167 172
336 337 337 328 318 305 285 298 326 325 321 320 317 313 299 276 247 231 252 295 309 355 3 351 347 342 320 298 250 216 208 219 239 223 195 193 192 194 206 207 201 209 218 214 210 216 227 230 217 203 215 220 209 206 211 205 205 207 204 208 212 209 209 214 211 211 228 236 224 224 230 238 243 240 244 238 206 203 211 212 214 197 183 192 188 169 166 175
335 334 327 315 311 292 272 296 317 319 321 321 312 300 290 275 261 253 267 281 325 355 349 342 336 328 316 307 281 232 208 203 224 230 206 195 199 197 205 213 207 206 217 210 204 208 212 225 226 211 202 212 213 202 202 202 194 199 205 200 204 208 202 202 208 220 229 231 229 225 223 233 242 234 234 241 233 219 212 205 211 203 187 185 177 173 177 176
333 332 314 301 288 266 277 312 321 321 320 317 308 295 283 268 268 278 283 306 344 345 343 344 332 320 309 293 284 268 233 202 208 223 212 196 203 205 203 212 214 214 218 213 208 209 210 212 217 216 196 193 210 211 202 199 190 198 206 204 213 214 202 202 207 217 228 228 221 220 223 231 236 227 223 231 232 232 230 211 206 198 181 177 175 183 187 174
335 332 310 302 279 260 299 325 324 323 320 313 311 298 282 269 277 304 332 343 347 344 340 334 320 309 304 286 276 274 262 225 206 215 218 205 206 209 204 208 213 214 213 214 210 207 218 218 206 214 209 191 201 210 206 202 194 195 200 207 217 212 203 214 216 214 221 230 218 212 223 232 241 247 229 226 223 221 227 225 217 192 170 174 182 184 188 178
332 327 314 310 297 311 332 332 325 321 317 318 327 305 287 297 325 359 360 344 340 339 334 330 318 301 291 283 269 259 284 287 231 214 216 217 217 215 213 208 208 213 214 212 215 207 217 223 200 204 212 204 197 198 205 211 197 185 198 209 211 206 212 225 224 218 216 226 221 211 223 222 230 246 230 224 228 219 214 216 226 207 169 175 186 180 185 189
325 319 312 298 298 333 338 332 324 311 304 323 323 308 305 312 330 347 347 338 335 333 330 327 325 313 301 301 297 309 342 334 279 242 215 212 223 220 218 215 207 212 219 220 226 220 220 224 200 197 206 206 194 192 206 219 211 190 194 202 201 206 216 228 237 227 217 227 223 213 225 217 208 227 217 214 221 223 219 208 215 221 189 180 185 177 182 192
310 299 292 279 298 340 342 327 315 301 297 313 301 303 309 310 325 335 333 331 330 330 329 319 315 317 314 317 320 329 341 336 313 301 242 209 217 218 220 223 210 210 216 223 234 228 224 232 207 199 201 195 184 188 205 217 220 219 198 188 197 206 202 207 229 231 221 228 223 216 227 222 208 208 202 209 210 210 225 217 206 215 207 190 185 175 177 187
301 292 289 319 342 351 338 312 302 297 291 303 309 322 318 308 321 330 328 330 331 330 322 314 316 313 308 316 320 323 327 320 319 322 284 235 219 204 256 278 232 219 213 214 227 235 229 237 214 197 193 185 179 190 202 206 214 225 212 191 201 212 198 198 215 230 228 224 220 221 229 233 226 204 190 204 202 196 215 225 211 209 205 196 184 169 170 180
310 297 5 32 7 349 327 300 284 287 295 307 315 317 324 324 323 323 326 331 332 325 317 316 315 307 306 319 320 320 329 323 316 315 302 306 349 51 26 2 334 314 256 223 225 230 231 240 232 198 188 188 187 193 198 197 200 212 214 198 195 202 202 203 209 220 233 232 219 218 224 234 235 208 191 197 191 183 199 218 214 207 202 196 179 164 167 177
310 287 342 11 3 346 324 295 272 304 300 312 323 316 328 331 315 316 325 328 324 317 314 311 305 302 307 318 322 326 326 318 315 308 303 329 348 9 11 355 345 340 323 277 230 219 223 235 234 216 197 197 197 193 196 201 201 201 209 206 196 194 199 205 207 207 219 238 238 231 237 246 244 201 186 181 171 169 189 207 203 203 204 193 181 175 172 174
301 297 316 335 350 343 323 294 311 335 296 325 336 318 324 325 311 317 325 323 321 315 309 303 301 304 305 308 319 327 319 308 309 304 309 335 331 327 350 349 337 325 309 300 250 225 226 234 229 230 229 210 194 188 194 204 207 204 207 211 202 196 199 208 208 196 204 224 235 246 249 311 31 43 149 144 151 163 181 196 187 201 215 194 185 189 175 169
319 314 302 313 4 346 317 297 331 321 311 341 338 319 322 323 314 319 323 322 322 316 309 307 306 305 307 312 313 318 317 309 300 299 315 329 319 318 337 340 329 323 318 321 297 240 230 236 227 231 252 223 192 186 192 203 210 209 206 209 209 202 199 208 214 199 202 210 212 231 233 162 68 35 84 91 128 164 173 187 181 192 224 197 180 187 167 156
321 299 290 341 15 346 308 316 334 322 321 332 328 319 321 322 321 326 327 327 328 319 310 310 312 310 309 309 301 304 313 306 301 323 331 328 317 315 326 335 329 319 328 353 340 300 245 237 222 221 255 226 190 183 188 199 210 216 205 202 212 210 198 201 214 208 207 207 202 213 223 164 108 101 97 93 167 187 166 178 184 180 213 211 175 167 153 148
314 294 290 342 353 335 309 319 322 319 322 323 321 320 321 320 329 335 324 322 330 330 321 315 313 309 303 300 295 297 304 295 302 336 349 338 322 314 325 337 326 305 324 343 325 311 298 264 238 223 226 214 195 190 194 193 199 219 212 198 205 214 204 196 203 208 205 198 198 211 220 159 122 113 113 135 196 203 155 168 184 148 132 190 131 127 139 147
314 309 314 335 337 323 296 300 315 319 319 322 320 317 320 322 331 333 317 321 350 346 327 316 312 307 303 307 304 298 305 307 313 349 350 332 324 317 325 330 319 315 338 329 299 296 299 277 268 244 230 226 190 174 199 200 193 209 216 201 197 211 212 199 197 209 201 187 198 212 200 147 137 146 171 172 183 180 155 166 164 106 83 65 70 85 101 123
312 311 323 337 328 312 305 315 323 315 312 321 313 303 316 325 331 328 311 322 357 347 324 316 318 316 313 316 313 305 317 327 341 356 337 327 331 324 323 323 315 333 347 324 276 287 296 271 264 247 242 246 229 83 309 236 207 204 213 208 195 201 212 207 199 198 189 186 197 185 160 158 161 170 177 164 150 143 156 159 133 97 95 98 96 100 105 112
323 310 323 335 323 309 317 319 311 308 311 314 299 296 312 314 307 313 319 330 340 345 342 323 317 313 311 316 317 312 325 337 345 352 337 332 335 327 327 324 318 340 348 323 282 322 305 275 268 249 245 246 238 246 299 306 271 216 211 211 198 195 207 210 203 195 187 194 197 162 152 167 162 153 148 142 134 118 128 139 117 97 97 105 115 124 121 120
324 303 320 336 327 308 307 306 304 310 313 308 298 301 306 298 296 310 321 318 316 327 337 307 306 310 309 311 312 310 327 336 328 335 336 328 328 327 327 322 320 338 342 323 319 3 327 278 276 256 245 246 245 246 248 283 311 275 220 211 202 196 202 207 208 200 190 198 201 170 161 164 138 137 143 138 137 125 101 100 110 111 114 123 129 132 131 129
326 310 322 329 316 300 298 302 308 308 304 301 301 300 288 288 303 318 315 316 321 318 303 295 308 317 311 307 308 308 321 319 296 298 309 309 317 324 320 311 315 328 331 330 348 353 327 275 278 270 253 247 247 251 248 248 279 288 251 215 202 197 199 203 210 206 191 194 203 182 169 169 147 154 160 141 130 123 101 103 117 114 115 133 141 137 140 143
308 305 309 309 300 296 297 304 308 298 297 308 304 296 290 294 312 319 316 334 331 299 300 309 312 310 302 299 302 308 315 308 288 286 291 290 294 299 294 295 304 313 321 332 340 335 324 294 271 262 256 255 249 242 237 230 244 276 277 224 202 198 198 197 204 211 195 184 196 192 180 173 148 145 148 136 114 96 93 114 120 78 67 100 131 113 113 135
309 310 313 308 292 290 295 303 304 296 301 312 299 296 301 302 308 310 308 318 269 268 289 300 293 289 295 298 302 310 312 303 291 286 280 275 273 269 268 279 288 296 307 320 326 328 332 330 301 269 255 253 254 241 225 220 232 260 282 239 209 206 207 197 198 211 207 193 194 195 180 173 171 158 147 138 133 120 101 98 84 64 58 52 51 51 30 22
Height
808 807 805 803 801 799 797 795 793 790 788 786 783 782 779 778 776 774 773 770 769 766 765 764 762 762 760 759 758 756 755 754 751 751 745 729 727 732 732 734 733 734 738 740 740 740 740 741 740 740 741 740 741 740 736 733 733 744 763 780 787 784 772 759 756 754 746 736 725 715 712 721 727 718 714 717 724 731 734 735 732 730 733 737 744 749 751 756
809 807 805 803 801 798 796 794 792 789 787 785 782 780 778 776 774 772 770 768 767 765 764 762 761 760 759 758 757 756 755 752 749 744 730 720 727 730 730 732 733 734 736 738 737 736 738 739 737 737 740 741 739 737 738 733 732 746 762 778 788 777 761 752 752 748 743 740 725 715 714 717 722 717 717 732 739 736 740 744 739 739 742 742 745 750 754 756
808 806 804 802 800 797 796 793 791 788 786 784 781 779 777 774 772 770 768 767 765 764 762 760 759 758 757 757 756 756 754 751 747 731 716 716 724 725 727 730 730 733 734 735 734 733 735 734 734 736 740 743 738 736 739 734 734 741 753 773 775 759 752 750 748 746 746 743 728 718 714 715 717 712 718 736 745 748 751 750 751 752 750 749 749 750 754 758
808 806 803 801 799 796 794 792 789 787 784 782 779 777 775 772 770 768 766 764 763 762 760 758 757 756 756 755 756 755 754 752 737 716 709 713 716 719 724 726 728 731 732 733 732 731 731 730 730 733 739 745 737 733 738 735 734 737 744 759 756 748 752 750 746 744 744 748 739 721 719 724 714 708 721 736 750 761 755 747 749 752 750 750 750 750 753 757
808 805 803 800 798 795 793 791 788 785 782 780 777 775 772 770 768 766 764 762 761 759 758 756 755 754 754 754 755 754 756 753 725 707 710 710 711 715 718 722 726 729 730 733 731 729 729 727 729 733 739 744 739 737 737 728 727 736 738 738 737 742 751 748 741 741 741 746 740 726 733 735 714 710 721 730 747 754 747 741 741 744 746 747 749 751 752 757
807 805 802 800 797 794 791 789 786 783 780 777 775 773 770 768 766 764 762 760 758 757 755 754 753 753 752 753 754 754 757 744 715 708 713 709 711 714 715 721 724 727 730 731 729 726 727 726 731 738 740 743 741 738 734 723 722 738 738 726 727 733 742 742 736 737 735 737 738 731 731 725 716 720 717 721 736 737 735 734 734 738 741 743 747 750 753 756
807 804 802 799 796 793 790 787 785 781 779 776 773 770 768 766 764 763 760 758 756 754 753 751 751 751 751 752 753 754 753 733 710 712 714 711 715 714 717 721 723 728 728 728 727 725 726 728 732 735 739 743 740 734 727 720 720 734 738 725 721 723 727 729 727 731 728 725 724 720 719 716 721 725 717 723 730 726 729 729 730 736 737 742 747 751 754 755
806 804 801 798 795 792 789 786 783 780 777 774 771 768 766 763 762 760 758 756 753 752 751 749 750 750 750 753 751 750 744 723 709 713 713 713 716 715 719 721 723 726 725 726 723 722 723 728 730 730 739 740 733 730 724 722 725 729 733 725 717 719 718 717 718 721 720 716 712 712 717 716 715 718 719 726 727 722 723 726 730 735 738 743 748 751 753 754
806 803 800 797 794 791 788 785 782 779 775 772 769 766 764 762 760 757 756 754 751 751 749 748 749 748 751 751 749 746 728 709 707 711 712 713 714 716 719 720 722 723 723 723 719 719 721 725 726 724 733 732 727 726 720 726 732 723 723 721 718 718 714 713 716 715 715 714 712 717 721 714 706 712 720 719 720 720 720 726 731 736 741 744 747 750 751 753
805 802 799 796 793 790 787 784 780 777 774 771 767 764 762 760 758 755 753 752 750 749 747 748 747 748 751 748 749 742 716 702 706 707 709 712 712 714 716 717 719 720 721 719 716 715 716 719 718 715 723 725 723 722 717 720 722 712 715 717 716 716 709 709 714 712 714 715 714 720 724 716 704 712 726 716 712 718 721 730 734 737 743 744 746 747 748 752
805 802 799 795 793 790 786 782 778 775 772 768 766 763 760 757 756 753 751 750 748 747 746 746 746 748 749 746 746 733 708 703 705 704 709 710 711 713 714 715 717 718 718 716 714 711 711 712 709 713 723 724 721 721 715 709 707 706 712 719 717 715 711 709 711 710 714 717 712 714 720 717 709 715 722 711 706 713 723 733 735 738 742 743 745 746 748 751
805 802 798 795 792 789 785 781 777 774 770 767 764 760 758 756 754 752 750 749 747 746 745 744 746 746 747 745 736 718 704 704 705 705 707 707 709 711 711 714 714 716 716 713 712 709 710 708 707 717 721 719 724 726 715 702 704 706 709 724 724 717 718 713 710 708 711 716 706 710 728 728 719 717 710 704 705 710 721 733 735 738 741 742 744 745 749 749
805 802 798 794 791 788 784 780 776 772 768 765 762 758 757 754 752 750 748 747 746 745 743 743 744 745 748 739 719 709 705 704 705 705 705 705 707 708 710 712 711 714 713 711 710 707 709 707 708 715 712 717 724 718 705 697 704 710 710 724 729 729 728 713 707 708 710 713 701 713 746 741 721 711 702 700 704 709 721 730 733 737 740 742 744 746 748 748
805 802 798 794 790 787 783 779 775 770 766 763 759 757 755 752 751 749 747 746 745 744 742 742 743 746 746 729 709 706 707 704 705 704 704 704 703 705 707 709 709 711 711 710 708 706 708 706 707 711 710 713 715 707 706 707 711 716 719 724 731 741 735 711 704 709 712 710 697 715 748 739 716 706 699 698 701 710 721 726 732 736 737 741 742 745 748 746
805 802 798 794 790 786 782 778 774 769 765 761 757 755 752 751 749 746 746 745 744 744 741 742 744 743 740 724 705 701 703 704 702 700 702 702 701 702 703 706 707 707 709 709 707 706 705 705 710 717 715 710 711 717 722 720 715 719 731 737 733 738 735 713 700 703 712 708 697 717 742 732 716 704 695 696 700 708 719 724 730 733 734 738 739 743 746 745
805 802 798 794 789 786 782 778 774 769 764 759 755 752 750 749 746 745 745 743 744 743 742 743 741 740 738 719 701 697 698 698 697 698 700 699 699 699 700 703 704 705 707 706 706 704 702 705 710 714 716 715 719 728 732 730 725 720 731 740 733 733 736 721 700 692 700 707 704 715 733 731 719 705 694 696 701 707 716 722 728 732 732 736 738 740 743 745
805 802 798 794 789 785 781 777 773 769 764 759 753 749 747 746 744 743 743 743 743 742 742 740 735 739 730 707 699 697 692 692 694 695 696 696 697 696 697 700 701 702 703 704 705 703 702 706 711 714 717 720 721 727 741 747 740 726 725 732 728 727 732 725 708 691 691 706 711 713 722 724 716 705 699 698 701 709 716 721 726 730 734 736 736 738 740 743
805 801 798 793 788 784 780 776 773 769 765 759 752 748 745 743 742 742 742 742 742 742 743 736 736 740 721 702 701 694 684 687 690 690 692 694 695 694 694 696 698 700 705 709 707 706 708 708 713 722 723 723 720 725 741 744 734 727 726 729 728 724 724 720 710 695 691 705 713 716 720 720 715 708 704 700 699 709 715 719 724 727 733 734 733 738 741 741
804 801 798 794 789 784 780 776 772 768 765 759 753 747 743 742 740 740 741 740 740 741 738 731 732 729 708 697 695 686 681 682 685 688 688 689 692 691 691 693 696 701 712 718 714 709 710 713 720 726 726 724 721 719 726 725 720 718 717 720 724 723 717 707 699 690 691 706 714 716 719 719 720 714 707 703 699 705 711 717 724 726 729 731 731 736 739 741
803 800 797 793 789 784 780 776 772 768 764 760 754 747 744 745 743 740 739 739 737 733 727 723 722 715 702 694 687 683 683 681 683 685 684 687 689 690 691 693 698 705 712 717 716 706 707 722 726 722 721 717 715 713 712 712 711 711 710 710 711 715 712 698 692 686 686 706 715 711 713 715 717 714 708 705 702 705 709 715 726 727 728 730 731 734 738 740
801 798 795 792 788 783 779 776 772 768 765 760 756 752 751 754 754 749 743 736 731 728 723 716 714 711 702 695 685 683 686 684 683 681 682 684 685 693 695 695 706 713 709 709 710 705 710 723 718 710 711 707 707 708 708 710 710 710 710 707 703 705 705 692 689 687 684 704 713 706 712 713 707 707 705 703 705 708 706 708 720 725 724 727 730 732 736 736
802 797 794 791 787 782 778 775 771 767 765 761 757 755 756 758 759 756 749 737 722 719 720 712 709 705 696 693 687 686 693 692 687 680 678 681 685 694 695 696 708 711 705 706 710 715 720 717 706 700 701 701 703 702 706 710 709 712 712 711 708 699 695 690 685 685 686 703 712 707 714 714 702 699 699 699 703 706 703 701 708 718 721 723 726 728 731 733
802 797 794 790 787 783 777 773 771 766 764 761 757 757 758 759 757 755 753 743 720 708 709 705 702 699 693 691 685 686 695 693 689 682 674 679 685 687 691 698 705 705 705 708 710 718 721 708 696 695 695 700 705 701 704 709 709 711 711 715 714 696 694 698 689 685 688 698 705 706 713 713 703 699 697 694 694 698 700 696 696 706 715 716 718 722 726 730
802 798 794 789 786 783 776 773 769 766 764 761 759 759 760 759 757 754 750 743 721 699 693 688 686 687 683 682 680 684 692 686 683 678 669 676 683 682 687 694 700 703 702 702 704 707 706 694 687 692 694 698 705 702 702 709 712 709 705 709 709 697 694 694 685 683 689 695 696 703 720 719 707 708 704 692 689 692 694 693 694 697 704 709 712 716 720 723
801 799 795 789 786 781 776 772 768 768 764 760 760 761 761 759 756 755 751 744 723 690 677 676 675 673 668 672 676 677 684 682 675 669 662 668 676 681 686 685 693 702 698 697 701 702 696 683 681 691 695 694 701 703 699 704 712 710 703 699 698 695 693 689 683 685 704 715 699 702 736 737 711 709 708 695 693 696 691 693 697 697 700 708 712 715 716 719
801 798 794 790 786 781 776 771 770 770 763 760 763 761 762 759 756 756 752 750 727 683 666 668 667 663 659 666 668 672 688 683 667 661 658 663 667 673 685 683 684 693 691 691 696 695 688 678 677 686 692 694 698 700 693 694 708 713 698 689 691 691 691 691 688 691 712 723 700 696 733 744 721 711 705 697 697 697 692 692 695 696 701 708 711 713 714 715
801 797 794 791 786 784 781 774 774 771 764 764 764 763 762 758 758 755 754 756 719 668 661 665 661 659 656 657 659 674 690 676 663 661 653 659 663 665 681 684 683 686 679 685 698 690 681 680 679 680 686 693 697 697 688 686 704 708 686 681 690 692 693 693 691 693 696 700 696 693 712 734 731 714 699 696 700 699 695 693 691 692 699 706 706 708 710 711
801 797 794 791 787 787 785 781 777 771 768 768 765 765 762 758 759 754 762 764 705 653 660 665 658 658 654 653 656 667 669 658 669 668 647 653 661 664 680 679 678 683 672 682 699 684 673 680 680 677 684 690 689 686 680 682 697 694 678 677 683 688 693 691 694 696 687 694 708 697 700 730 734 708 692 693 700 703 697 691 689 688 693 699 700 702 705 707
800 797 794 791 787 785 784 782 779 774 772 769 767 766 761 759 758 753 769 763 696 655 663 662 661 662 656 658 661 664 659 653 663 659 646 653 655 660 676 672 671 678 671 674 686 677 667 669 669 671 679 682 678 673 671 679 688 681 674 677 678 681 687 691 698 701 698 710 719 701 694 720 725 703 694 697 699 700 692 684 683 682 686 693 694 696 699 702
799 796 793 790 787 784 783 780 777 775 773 770 768 765 760 759 757 763 776 748 693 668 664 661 668 668 663 669 670 668 665 659 652 648 652 655 654 658 665 664 666 673 672 671 674 670 658 654 657 663 666 665 666 666 665 671 674 672 677 685 687 684 684 691 695 700 716 726 719 700 686 701 718 704 690 690 689 686 683 681 680 677 681 687 688 691 695 698
798 795 793 791 788 786 784 778 775 775 773 771 769 762 760 758 757 770 763 718 688 683 674 675 682 677 674 676 674 669 669 665 653 651 660 659 661 668 668 670 672 676 680 677 674 670 661 658 657 655 653 652 660 666 663 663 665 671 683 692 700 701 698 703 702 705 729 733 713 699 688 698 720 707 681 672 668 668 672 676 675 674 678 681 681 685 691 694
797 794 792 790 788 787 784 780 776 775 773 771 767 762 762 763 761 762 741 707 703 705 695 698 698 691 688 681 673 667 667 670 659 652 658 661 666 670 671 673 674 684 689 681 678 676 669 663 654 651 649 646 660 674 670 665 667 676 686 696 713 722 721 725 723 719 728 723 703 694 697 705 708 692 673 664 657 657 661 663 663 665 671 676 675 680 686 689
796 792 790 788 787 785 783 780 777 775 772 769 767 762 765 773 767 751 731 717 716 709 703 708 704 697 694 686 676 663 659 666 662 654 652 657 665 667 667 664 660 674 682 675 679 682 678 668 653 652 651 644 653 672 680 676 673 682 688 697 715 723 731 743 739 732 730 719 699 689 697 706 699 681 667 660 654 650 649 651 654 656 662 669 671 675 681 684
795 791 789 786 784 783 780 779 777 775 772 768 766 765 770 777 764 741 732 728 722 716 715 716 710 701 693 686 677 664 660 661 656 655 653 655 666 667 666 663 655 659 668 671 674 675 685 681 658 651 650 645 649 657 664 667 672 678 675 684 701 703 719 738 737 735 733 718 702 695 699 704 698 678 657 649 648 644 642 642 645 649 653 660 667 672 677 680
794 790 787 783 782 780 779 779 776 774 772 766 767 771 774 770 751 741 747 746 738 733 728 720 713 708 697 685 675 663 663 662 652 653 654 654 662 663 660 661 655 654 663 673 668 661 676 673 646 639 637 637 649 646 643 656 673 673 665 679 692 683 693 712 712 710 713 713 706 698 694 686 676 660 643 641 643 640 642 641 641 646 649 657 667 671 674 676
793 790 786 782 780 779 778 778 775 774 771 767 773 777 772 763 752 755 762 757 749 744 738 728 717 713 703 687 675 664 663 664 655 654 656 654 655 654 654 652 648 650 654 662 661 657 669 664 637 635 635 630 640 643 638 650 667 669 670 680 675 663 675 698 703 690 694 713 706 690 689 679 671 664 645 641 645 641 643 644 643 644 647 656 664 666 670 671
793 790 787 782 779 777 777 776 775 773 768 770 781 781 771 764 759 762 763 757 753 748 747 743 728 720 716 702 689 680 679 678 666 657 655 656 655 649 647 645 641 643 643 647 652 645 654 659 635 631 643 632 625 637 640 636 644 662 675 671 661 662 670 686 705 701 702 717 702 683 688 685 686 684 656 646 654 650 644 644 644 643 644 650 656 659 664 663
794 789 785 780 778 776 776 776 774 771 767 770 780 778 771 767 761 761 760 757 754 751 753 753 738 729 729 724 715 705 703 701 688 674 659 650 651 644 641 642 636 635 634 639 648 637 638 657 641 623 637 633 622 641 655 641 632 644 654 651 659 682 688 689 704 710 711 717 704 686 683 677 677 676 659 653 657 653 648 644 643 644 642 644 647 653 658 658
792 786 779 776 776 775 775 775 771 768 769 772 777 773 767 765 761 759 759 756 756 756 757 755 747 740 737 735 731 720 717 715 704 701 684 657 648 644 641 644 640 633 630 632 644 637 631 652 649 622 621 631 633 647 664 657 642 638 641 644 654 670 681 686 691 694 700 710 707 698 691 678 661 649 649 652 648 647 651 646 643 642 639 639 642 647 654 657
793 786 777 773 776 775 774 772 767 767 769 768 771 769 763 762 761 757 756 756 758 758 759 757 754 750 742 739 738 730 729 728 715 712 701 671 658 657 653 654 652 643 635 631 637 637 633 645 650 629 617 631 643 644 650 655 652 650 653 656 659 660 665 674 678 677 685 698 703 703 701 681 645 627 634 640 637 639 645 644 641 638 635 636 638 644 650 653
796 789 777 771 775 775 771 767 763 765 767 765 766 765 762 763 762 757 754 755 756 756 756 756 754 751 745 745 747 742 739 736 725 718 707 689 683 678 665 659 659 653 648 643 636 635 638 643 647 639 630 633 636 629 630 638 641 647 653 653 656 661 666 682 690 676 673 684 688 692 698 674 631 614 621 626 628 632 635 638 639 635 632 633 634 639 644 647
795 787 776 772 775 774 771 765 758 760 764 762 763 763 761 761 761 759 756 755 757 755 753 754 752 750 748 746 749 751 747 738 732 726 714 705 703 690 670 663 661 654 652 650 639 627 628 636 643 643 632 623 620 617 622 628 628 634 643 642 644 652 661 682 694 681 674 679 674 677 690 672 630 612 615 618 622 627 629 632 635 634 630 628 630 632 636 641
796 789 777 772 774 774 773 768 760 761 762 760 762 762 759 760 761 759 758 757 758 757 755 755 753 749 748 747 748 753 751 740 732 728 719 713 707 692 675 669 665 658 654 655 647 631 629 637 646 647 634 615 610 613 617 622 626 635 639 635 638 645 649 660 667 666 674 681 676 683 694 674 638 618 617 619 620 623 626 628 631 634 629 624 626 628 632 639
801 792 776 770 773 774 774 773 770 769 767 765 767 765 761 761 761 761 761 760 759 759 758 756 754 751 749 748 748 749 751 746 735 729 728 724 713 696 682 676 671 664 662 665 662 652 650 648 646 656 661 645 631 633 635 632 632 636 635 633 635 636 640 649 651 656 672 675 671 687 695 670 642 628 624 626 627 625 626 625 626 630 629 624 623 626 630 636
805 792 776 769 772 775 775 774 773 774 773 771 772 769 764 762 761 761 763 762 759 760 761 758 755 752 749 747 747 745 748 749 742 738 740 738 723 703 691 689 683 669 664 667 665 661 663 656 646 658 672 662 649 649 647 640 638 636 630 630 635 633 637 648 655 666 679 673 666 678 681 662 644 637 634 634 633 631 629 627 626 628 631 627 624 628 631 634
810 798 784 777 776 775 773 770 770 774 776 777 777 771 768 767 764 762 761 762 762 763 764 762 756 753 751 749 750 748 746 746 746 748 750 745 733 716 703 698 690 675 669 668 662 660 664 659 650 651 653 646 642 639 629 627 637 641 633 628 633 634 632 640 656 669 671 669 670 668 664 662 656 649 644 639 635 634 632 631 632 632 635 635 632 634 636 637
813 803 794 792 788 780 773 770 771 774 775 779 780 773 770 771 770 767 762 761 764 765 765 762 758 759 758 753 753 752 750 749 751 756 757 749 740 728 712 702 693 683 675 668 658 657 665 663 651 645 642 636 634 631 624 624 631 635 634 630 630 633 633 638 653 658 653 667 677 661 654 666 662 648 644 640 635 635 632 631 634 636 637 639 638 638 640 642
819 811 801 800 800 792 784 780 777 773 773 777 778 773 773 773 772 771 766 761 763 766 768 767 762 761 759 755 756 756 755 757 757 759 760 755 747 738 723 708 696 687 682 671 656 657 670 668 651 642 641 635 630 629 628 629 627 625 628 627 626 631 636 639 645 644 644 662 669 653 651 661 653 641 639 636 633 634 631 628 630 634 637 639 640 642 643 647
823 818 809 806 807 802 795 787 779 777 777 779 777 774 776 776 772 769 766 764 765 765 769 770 764 758 755 752 755 758 759 762 763 761 761 758 753 748 740 723 703 692 690 679 660 658 671 670 652 643 642 638 633 630 627 630 633 630 625 621 621 627 631 635 638 635 638 650 649 643 651 652 642 638 636 630 629 630 629 629 630 635 640 641 642 643 645 648
826 825 821 818 814 807 799 790 784 783 780 779 779 777 777 776 771 767 764 765 770 769 766 766 763 759 757 751 752 757 757 758 761 760 759 758 755 752 749 738 720 707 700 687 672 667 673 669 654 646 649 646 637 633 632 634 639 638 630 619 617 624 629 634 636 632 638 648 643 642 655 654 638 632 632 629 628 630 634 638 638 639 642 642 643 643 644 647
828 827 826 826 820 809 802 794 789 786 780 779 782 780 776 773 770 769 766 764 772 774 767 764 763 761 757 751 750 753 752 752 753 751 751 753 752 751 749 741 733 725 712 698 689 680 675 670 656 652 663 658 644 640 639 634 637 642 636 622 615 622 627 630 632 630 634 646 648 649 659 655 637 629 632 633 634 638 643 644 643 644 644 645 646 645 645 647
827 825 824 827 822 811 805 799 792 787 781 779 781 777 774 770 766 770 772 768 767 769 766 765 764 761 758 753 750 750 748 746 745 743 744 745 744 745 745 740 735 732 721 710 702 690 682 681 670 666 673 665 648 641 638 638 651 658 643 623 614 618 622 625 629 628 626 634 647 654 652 643 633 630 637 642 643 647 649 647 647 649 650 650 649 648 649 648